Date_Time,Julian_Date,Latitude,Longitude,Instrument_Depth,Water_Temperature
(yyyy-mm-dd hh:mn:ss UTC),(JD),(+ deg. North),(+ deg. East),(m),(deg. C)
1991-02-16 17:30:00 UTC,2448304.229167,24.2947,-82.2033,0150,12.5860
1991-02-16 18:00:00 UTC,2448304.250000,24.2947,-82.2033,0150,12.6480
1991-02-16 18:30:00 UTC,2448304.270833,24.2947,-82.2033,0150,12.8960
1991-02-16 19:00:00 UTC,2448304.291667,24.2947,-82.2033,0150,12.2760
1991-02-16 19:30:00 UTC,2448304.312500,24.2947,-82.2033,0150,12.6170
1991-02-16 20:00:00 UTC,2448304.333333,24.2947,-82.2033,0150,12.9270
1991-02-16 20:30:00 UTC,2448304.354167,24.2947,-82.2033,0150,12.9270
1991-02-16 21:00:00 UTC,2448304.375000,24.2947,-82.2033,0150,12.8650
1991-02-16 21:30:00 UTC,2448304.395833,24.2947,-82.2033,0150,12.9580
1991-02-16 22:00:00 UTC,2448304.416667,24.2947,-82.2033,0150,12.7720
1991-02-16 22:30:00 UTC,2448304.437500,24.2947,-82.2033,0150,12.4930
1991-02-16 23:00:00 UTC,2448304.458333,24.2947,-82.2033,0150,12.8340
1991-02-16 23:30:00 UTC,2448304.479167,24.2947,-82.2033,0150,12.8340
1991-02-17 00:00:00 UTC,2448304.500000,24.2947,-82.2033,0150,12.8340
1991-02-17 00:30:00 UTC,2448304.520833,24.2947,-82.2033,0150,12.8960
1991-02-17 01:00:00 UTC,2448304.541667,24.2947,-82.2033,0150,12.8030
1991-02-17 01:30:00 UTC,2448304.562500,24.2947,-82.2033,0150,12.4620
1991-02-17 02:00:00 UTC,2448304.583333,24.2947,-82.2033,0150,12.5860
1991-02-17 02:30:00 UTC,2448304.604167,24.2947,-82.2033,0150,12.3380
1991-02-17 03:00:00 UTC,2448304.625000,24.2947,-82.2033,0150,12.6790
1991-02-17 03:30:00 UTC,2448304.645833,24.2947,-82.2033,0150,12.4620
1991-02-17 04:00:00 UTC,2448304.666667,24.2947,-82.2033,0150,12.4310
1991-02-17 04:30:00 UTC,2448304.687500,24.2947,-82.2033,0150,12.5550
1991-02-17 05:00:00 UTC,2448304.708333,24.2947,-82.2033,0150,12.5550
1991-02-17 05:30:00 UTC,2448304.729167,24.2947,-82.2033,0150,12.5550
1991-02-17 06:00:00 UTC,2448304.750000,24.2947,-82.2033,0150,12.4930
1991-02-17 06:30:00 UTC,2448304.770833,24.2947,-82.2033,0150,12.4930
1991-02-17 07:00:00 UTC,2448304.791667,24.2947,-82.2033,0150,12.8340
1991-02-17 07:30:00 UTC,2448304.812500,24.2947,-82.2033,0150,12.5860
1991-02-17 08:00:00 UTC,2448304.833333,24.2947,-82.2033,0150,12.9890
1991-02-17 08:30:00 UTC,2448304.854167,24.2947,-82.2033,0150,13.0200
1991-02-17 09:00:00 UTC,2448304.875000,24.2947,-82.2033,0150,13.0820
1991-02-17 09:30:00 UTC,2448304.895833,24.2947,-82.2033,0150,12.9890
1991-02-17 10:00:00 UTC,2448304.916667,24.2947,-82.2033,0150,12.7410
1991-02-17 10:30:00 UTC,2448304.937500,24.2947,-82.2033,0150,13.5780
1991-02-17 11:00:00 UTC,2448304.958333,24.2947,-82.2033,0150,13.8270
1991-02-17 11:30:00 UTC,2448304.979167,24.2947,-82.2033,0150,13.7650
1991-02-17 12:00:00 UTC,2448305.000000,24.2947,-82.2033,0150,13.6710
1991-02-17 12:30:00 UTC,2448305.020833,24.2947,-82.2033,0150,13.6710
1991-02-17 13:00:00 UTC,2448305.041667,24.2947,-82.2033,0150,13.6710
1991-02-17 13:30:00 UTC,2448305.062500,24.2947,-82.2033,0150,13.6090
1991-02-17 14:00:00 UTC,2448305.083333,24.2947,-82.2033,0150,13.5780
1991-02-17 14:30:00 UTC,2448305.104167,24.2947,-82.2033,0150,13.5780
1991-02-17 15:00:00 UTC,2448305.125000,24.2947,-82.2033,0150,13.5780
1991-02-17 15:30:00 UTC,2448305.145833,24.2947,-82.2033,0150,13.5470
1991-02-17 16:00:00 UTC,2448305.166667,24.2947,-82.2033,0150,13.5160
1991-02-17 16:30:00 UTC,2448305.187500,24.2947,-82.2033,0150,13.3300
1991-02-17 17:00:00 UTC,2448305.208333,24.2947,-82.2033,0150,13.1750
1991-02-17 17:30:00 UTC,2448305.229167,24.2947,-82.2033,0150,13.2060
1991-02-17 18:00:00 UTC,2448305.250000,24.2947,-82.2033,0150,13.2060
1991-02-17 18:30:00 UTC,2448305.270833,24.2947,-82.2033,0150,13.3300
1991-02-17 19:00:00 UTC,2448305.291667,24.2947,-82.2033,0150,13.3610
1991-02-17 19:30:00 UTC,2448305.312500,24.2947,-82.2033,0150,13.8580
1991-02-17 20:00:00 UTC,2448305.333333,24.2947,-82.2033,0150,14.0130
1991-02-17 20:30:00 UTC,2448305.354167,24.2947,-82.2033,0150,14.2620
1991-02-17 21:00:00 UTC,2448305.375000,24.2947,-82.2033,0150,14.2000
1991-02-17 21:30:00 UTC,2448305.395833,24.2947,-82.2033,0150,14.2930
1991-02-17 22:00:00 UTC,2448305.416667,24.2947,-82.2033,0150,13.7960
1991-02-17 22:30:00 UTC,2448305.437500,24.2947,-82.2033,0150,14.2930
1991-02-17 23:00:00 UTC,2448305.458333,24.2947,-82.2033,0150,14.3870
1991-02-17 23:30:00 UTC,2448305.479167,24.2947,-82.2033,0150,14.1070
1991-02-18 00:00:00 UTC,2448305.500000,24.2947,-82.2033,0150,14.0130
1991-02-18 00:30:00 UTC,2448305.520833,24.2947,-82.2033,0150,14.0440
1991-02-18 01:00:00 UTC,2448305.541667,24.2947,-82.2033,0150,14.0130
1991-02-18 01:30:00 UTC,2448305.562500,24.2947,-82.2033,0150,14.5110
1991-02-18 02:00:00 UTC,2448305.583333,24.2947,-82.2033,0150,14.2930
1991-02-18 02:30:00 UTC,2448305.604167,24.2947,-82.2033,0150,14.2310
1991-02-18 03:00:00 UTC,2448305.625000,24.2947,-82.2033,0150,13.8890
1991-02-18 03:30:00 UTC,2448305.645833,24.2947,-82.2033,0150,14.2310
1991-02-18 04:00:00 UTC,2448305.666667,24.2947,-82.2033,0150,14.1380
1991-02-18 04:30:00 UTC,2448305.687500,24.2947,-82.2033,0150,14.4800
1991-02-18 05:00:00 UTC,2448305.708333,24.2947,-82.2033,0150,14.3550
1991-02-18 05:30:00 UTC,2448305.729167,24.2947,-82.2033,0150,14.2930
1991-02-18 06:00:00 UTC,2448305.750000,24.2947,-82.2033,0150,13.7960
1991-02-18 06:30:00 UTC,2448305.770833,24.2947,-82.2033,0150,14.2000
1991-02-18 07:00:00 UTC,2448305.791667,24.2947,-82.2033,0150,14.2310
1991-02-18 07:30:00 UTC,2448305.812500,24.2947,-82.2033,0150,14.2000
1991-02-18 08:00:00 UTC,2448305.833333,24.2947,-82.2033,0150,14.1690
1991-02-18 08:30:00 UTC,2448305.854167,24.2947,-82.2033,0150,13.8890
1991-02-18 09:00:00 UTC,2448305.875000,24.2947,-82.2033,0150,14.1380
1991-02-18 09:30:00 UTC,2448305.895833,24.2947,-82.2033,0150,14.1380
1991-02-18 10:00:00 UTC,2448305.916667,24.2947,-82.2033,0150,13.9510
1991-02-18 10:30:00 UTC,2448305.937500,24.2947,-82.2033,0150,14.1690
1991-02-18 11:00:00 UTC,2448305.958333,24.2947,-82.2033,0150,14.1690
1991-02-18 11:30:00 UTC,2448305.979167,24.2947,-82.2033,0150,14.1380
1991-02-18 12:00:00 UTC,2448306.000000,24.2947,-82.2033,0150,13.9820
1991-02-18 12:30:00 UTC,2448306.020833,24.2947,-82.2033,0150,13.8890
1991-02-18 13:00:00 UTC,2448306.041667,24.2947,-82.2033,0150,13.9200
1991-02-18 13:30:00 UTC,2448306.062500,24.2947,-82.2033,0150,14.0440
1991-02-18 14:00:00 UTC,2448306.083333,24.2947,-82.2033,0150,13.8580
1991-02-18 14:30:00 UTC,2448306.104167,24.2947,-82.2033,0150,14.2000
1991-02-18 15:00:00 UTC,2448306.125000,24.2947,-82.2033,0150,13.9820
1991-02-18 15:30:00 UTC,2448306.145833,24.2947,-82.2033,0150,14.0750
1991-02-18 16:00:00 UTC,2448306.166667,24.2947,-82.2033,0150,14.4180
1991-02-18 16:30:00 UTC,2448306.187500,24.2947,-82.2033,0150,14.4800
1991-02-18 17:00:00 UTC,2448306.208333,24.2947,-82.2033,0150,14.2000
1991-02-18 17:30:00 UTC,2448306.229167,24.2947,-82.2033,0150,14.4800
1991-02-18 18:00:00 UTC,2448306.250000,24.2947,-82.2033,0150,13.7650
1991-02-18 18:30:00 UTC,2448306.270833,24.2947,-82.2033,0150,14.4180
1991-02-18 19:00:00 UTC,2448306.291667,24.2947,-82.2033,0150,14.2000
1991-02-18 19:30:00 UTC,2448306.312500,24.2947,-82.2033,0150,13.8270
1991-02-18 20:00:00 UTC,2448306.333333,24.2947,-82.2033,0150,14.0750
1991-02-18 20:30:00 UTC,2448306.354167,24.2947,-82.2033,0150,14.5110
1991-02-18 21:00:00 UTC,2448306.375000,24.2947,-82.2033,0150,14.4180
1991-02-18 21:30:00 UTC,2448306.395833,24.2947,-82.2033,0150,14.4490
1991-02-18 22:00:00 UTC,2448306.416667,24.2947,-82.2033,0150,14.2000
1991-02-18 22:30:00 UTC,2448306.437500,24.2947,-82.2033,0150,14.3240
1991-02-18 23:00:00 UTC,2448306.458333,24.2947,-82.2033,0150,14.3870
1991-02-18 23:30:00 UTC,2448306.479167,24.2947,-82.2033,0150,14.4490
1991-02-19 00:00:00 UTC,2448306.500000,24.2947,-82.2033,0150,14.4490
1991-02-19 00:30:00 UTC,2448306.520833,24.2947,-82.2033,0150,14.6360
1991-02-19 01:00:00 UTC,2448306.541667,24.2947,-82.2033,0150,14.2310
1991-02-19 01:30:00 UTC,2448306.562500,24.2947,-82.2033,0150,14.1380
1991-02-19 02:00:00 UTC,2448306.583333,24.2947,-82.2033,0150,14.2000
1991-02-19 02:30:00 UTC,2448306.604167,24.2947,-82.2033,0150,14.2000
1991-02-19 03:00:00 UTC,2448306.625000,24.2947,-82.2033,0150,14.2000
1991-02-19 03:30:00 UTC,2448306.645833,24.2947,-82.2033,0150,14.2000
1991-02-19 04:00:00 UTC,2448306.666667,24.2947,-82.2033,0150,14.0750
1991-02-19 04:30:00 UTC,2448306.687500,24.2947,-82.2033,0150,14.0130
1991-02-19 05:00:00 UTC,2448306.708333,24.2947,-82.2033,0150,13.8270
1991-02-19 05:30:00 UTC,2448306.729167,24.2947,-82.2033,0150,13.8270
1991-02-19 06:00:00 UTC,2448306.750000,24.2947,-82.2033,0150,13.7960
1991-02-19 06:30:00 UTC,2448306.770833,24.2947,-82.2033,0150,13.7960
1991-02-19 07:00:00 UTC,2448306.791667,24.2947,-82.2033,0150,13.7650
1991-02-19 07:30:00 UTC,2448306.812500,24.2947,-82.2033,0150,13.6400
1991-02-19 08:00:00 UTC,2448306.833333,24.2947,-82.2033,0150,13.5780
1991-02-19 08:30:00 UTC,2448306.854167,24.2947,-82.2033,0150,13.5780
1991-02-19 09:00:00 UTC,2448306.875000,24.2947,-82.2033,0150,13.7960
1991-02-19 09:30:00 UTC,2448306.895833,24.2947,-82.2033,0150,13.7020
1991-02-19 10:00:00 UTC,2448306.916667,24.2947,-82.2033,0150,13.5160
1991-02-19 10:30:00 UTC,2448306.937500,24.2947,-82.2033,0150,13.8890
1991-02-19 11:00:00 UTC,2448306.958333,24.2947,-82.2033,0150,13.8890
1991-02-19 11:30:00 UTC,2448306.979167,24.2947,-82.2033,0150,13.7650
1991-02-19 12:00:00 UTC,2448307.000000,24.2947,-82.2033,0150,13.7340
1991-02-19 12:30:00 UTC,2448307.020833,24.2947,-82.2033,0150,13.9200
1991-02-19 13:00:00 UTC,2448307.041667,24.2947,-82.2033,0150,13.7340
1991-02-19 13:30:00 UTC,2448307.062500,24.2947,-82.2033,0150,13.7650
1991-02-19 14:00:00 UTC,2448307.083333,24.2947,-82.2033,0150,13.7340
1991-02-19 14:30:00 UTC,2448307.104167,24.2947,-82.2033,0150,12.9890
1991-02-19 15:00:00 UTC,2448307.125000,24.2947,-82.2033,0150,13.3300
1991-02-19 15:30:00 UTC,2448307.145833,24.2947,-82.2033,0150,13.4230
1991-02-19 16:00:00 UTC,2448307.166667,24.2947,-82.2033,0150,13.4540
1991-02-19 16:30:00 UTC,2448307.187500,24.2947,-82.2033,0150,13.7020
1991-02-19 17:00:00 UTC,2448307.208333,24.2947,-82.2033,0150,13.9820
1991-02-19 17:30:00 UTC,2448307.229167,24.2947,-82.2033,0150,13.9510
1991-02-19 18:00:00 UTC,2448307.250000,24.2947,-82.2033,0150,13.9820
1991-02-19 18:30:00 UTC,2448307.270833,24.2947,-82.2033,0150,14.0440
1991-02-19 19:00:00 UTC,2448307.291667,24.2947,-82.2033,0150,13.9820
1991-02-19 19:30:00 UTC,2448307.312500,24.2947,-82.2033,0150,13.9510
1991-02-19 20:00:00 UTC,2448307.333333,24.2947,-82.2033,0150,13.9510
1991-02-19 20:30:00 UTC,2448307.354167,24.2947,-82.2033,0150,13.8580
1991-02-19 21:00:00 UTC,2448307.375000,24.2947,-82.2033,0150,13.7960
1991-02-19 21:30:00 UTC,2448307.395833,24.2947,-82.2033,0150,13.7650
1991-02-19 22:00:00 UTC,2448307.416667,24.2947,-82.2033,0150,13.7340
1991-02-19 22:30:00 UTC,2448307.437500,24.2947,-82.2033,0150,13.6710
1991-02-19 23:00:00 UTC,2448307.458333,24.2947,-82.2033,0150,13.4850
1991-02-19 23:30:00 UTC,2448307.479167,24.2947,-82.2033,0150,13.2990
1991-02-20 00:00:00 UTC,2448307.500000,24.2947,-82.2033,0150,13.4230
1991-02-20 00:30:00 UTC,2448307.520833,24.2947,-82.2033,0150,13.6400
1991-02-20 01:00:00 UTC,2448307.541667,24.2947,-82.2033,0150,13.6710
1991-02-20 01:30:00 UTC,2448307.562500,24.2947,-82.2033,0150,13.6400
1991-02-20 02:00:00 UTC,2448307.583333,24.2947,-82.2033,0150,13.6710
1991-02-20 02:30:00 UTC,2448307.604167,24.2947,-82.2033,0150,13.3610
1991-02-20 03:00:00 UTC,2448307.625000,24.2947,-82.2033,0150,13.1750
1991-02-20 03:30:00 UTC,2448307.645833,24.2947,-82.2033,0150,13.0820
1991-02-20 04:00:00 UTC,2448307.666667,24.2947,-82.2033,0150,13.0820
1991-02-20 04:30:00 UTC,2448307.687500,24.2947,-82.2033,0150,13.1130
1991-02-20 05:00:00 UTC,2448307.708333,24.2947,-82.2033,0150,13.4850
1991-02-20 05:30:00 UTC,2448307.729167,24.2947,-82.2033,0150,13.3610
1991-02-20 06:00:00 UTC,2448307.750000,24.2947,-82.2033,0150,13.7650
1991-02-20 06:30:00 UTC,2448307.770833,24.2947,-82.2033,0150,13.9820
1991-02-20 07:00:00 UTC,2448307.791667,24.2947,-82.2033,0150,14.0750
1991-02-20 07:30:00 UTC,2448307.812500,24.2947,-82.2033,0150,13.8270
1991-02-20 08:00:00 UTC,2448307.833333,24.2947,-82.2033,0150,13.4850
1991-02-20 08:30:00 UTC,2448307.854167,24.2947,-82.2033,0150,13.4540
1991-02-20 09:00:00 UTC,2448307.875000,24.2947,-82.2033,0150,13.3920
1991-02-20 09:30:00 UTC,2448307.895833,24.2947,-82.2033,0150,13.4540
1991-02-20 10:00:00 UTC,2448307.916667,24.2947,-82.2033,0150,13.3610
1991-02-20 10:30:00 UTC,2448307.937500,24.2947,-82.2033,0150,13.4540
1991-02-20 11:00:00 UTC,2448307.958333,24.2947,-82.2033,0150,13.4540
1991-02-20 11:30:00 UTC,2448307.979167,24.2947,-82.2033,0150,13.6400
1991-02-20 12:00:00 UTC,2448308.000000,24.2947,-82.2033,0150,13.7340
1991-02-20 12:30:00 UTC,2448308.020833,24.2947,-82.2033,0150,13.9200
1991-02-20 13:00:00 UTC,2448308.041667,24.2947,-82.2033,0150,13.9510
1991-02-20 13:30:00 UTC,2448308.062500,24.2947,-82.2033,0150,14.0440
1991-02-20 14:00:00 UTC,2448308.083333,24.2947,-82.2033,0150,13.7650
1991-02-20 14:30:00 UTC,2448308.104167,24.2947,-82.2033,0150,13.8270
1991-02-20 15:00:00 UTC,2448308.125000,24.2947,-82.2033,0150,13.6710
1991-02-20 15:30:00 UTC,2448308.145833,24.2947,-82.2033,0150,13.5780
1991-02-20 16:00:00 UTC,2448308.166667,24.2947,-82.2033,0150,13.3300
1991-02-20 16:30:00 UTC,2448308.187500,24.2947,-82.2033,0150,13.3300
1991-02-20 17:00:00 UTC,2448308.208333,24.2947,-82.2033,0150,13.3300
1991-02-20 17:30:00 UTC,2448308.229167,24.2947,-82.2033,0150,13.3610
1991-02-20 18:00:00 UTC,2448308.250000,24.2947,-82.2033,0150,13.2060
1991-02-20 18:30:00 UTC,2448308.270833,24.2947,-82.2033,0150,13.1750
1991-02-20 19:00:00 UTC,2448308.291667,24.2947,-82.2033,0150,13.1750
1991-02-20 19:30:00 UTC,2448308.312500,24.2947,-82.2033,0150,13.4230
1991-02-20 20:00:00 UTC,2448308.333333,24.2947,-82.2033,0150,13.0510
1991-02-20 20:30:00 UTC,2448308.354167,24.2947,-82.2033,0150,13.0200
1991-02-20 21:00:00 UTC,2448308.375000,24.2947,-82.2033,0150,13.0820
1991-02-20 21:30:00 UTC,2448308.395833,24.2947,-82.2033,0150,13.2060
1991-02-20 22:00:00 UTC,2448308.416667,24.2947,-82.2033,0150,13.2990
1991-02-20 22:30:00 UTC,2448308.437500,24.2947,-82.2033,0150,13.6710
1991-02-20 23:00:00 UTC,2448308.458333,24.2947,-82.2033,0150,13.7020
1991-02-20 23:30:00 UTC,2448308.479167,24.2947,-82.2033,0150,13.5470
1991-02-21 00:00:00 UTC,2448308.500000,24.2947,-82.2033,0150,13.5160
1991-02-21 00:30:00 UTC,2448308.520833,24.2947,-82.2033,0150,13.0820
1991-02-21 01:00:00 UTC,2448308.541667,24.2947,-82.2033,0150,12.9890
1991-02-21 01:30:00 UTC,2448308.562500,24.2947,-82.2033,0150,13.2370
1991-02-21 02:00:00 UTC,2448308.583333,24.2947,-82.2033,0150,13.3610
1991-02-21 02:30:00 UTC,2448308.604167,24.2947,-82.2033,0150,13.1750
1991-02-21 03:00:00 UTC,2448308.625000,24.2947,-82.2033,0150,13.5470
1991-02-21 03:30:00 UTC,2448308.645833,24.2947,-82.2033,0150,13.4540
1991-02-21 04:00:00 UTC,2448308.666667,24.2947,-82.2033,0150,13.2060
1991-02-21 04:30:00 UTC,2448308.687500,24.2947,-82.2033,0150,13.1750
1991-02-21 05:00:00 UTC,2448308.708333,24.2947,-82.2033,0150,13.1440
1991-02-21 05:30:00 UTC,2448308.729167,24.2947,-82.2033,0150,13.2060
1991-02-21 06:00:00 UTC,2448308.750000,24.2947,-82.2033,0150,13.2990
1991-02-21 06:30:00 UTC,2448308.770833,24.2947,-82.2033,0150,13.2680
1991-02-21 07:00:00 UTC,2448308.791667,24.2947,-82.2033,0150,13.2370
1991-02-21 07:30:00 UTC,2448308.812500,24.2947,-82.2033,0150,13.1750
1991-02-21 08:00:00 UTC,2448308.833333,24.2947,-82.2033,0150,13.2370
1991-02-21 08:30:00 UTC,2448308.854167,24.2947,-82.2033,0150,13.2680
1991-02-21 09:00:00 UTC,2448308.875000,24.2947,-82.2033,0150,13.0510
1991-02-21 09:30:00 UTC,2448308.895833,24.2947,-82.2033,0150,12.8030
1991-02-21 10:00:00 UTC,2448308.916667,24.2947,-82.2033,0150,12.7720
1991-02-21 10:30:00 UTC,2448308.937500,24.2947,-82.2033,0150,13.0820
1991-02-21 11:00:00 UTC,2448308.958333,24.2947,-82.2033,0150,13.4230
1991-02-21 11:30:00 UTC,2448308.979167,24.2947,-82.2033,0150,13.4540
1991-02-21 12:00:00 UTC,2448309.000000,24.2947,-82.2033,0150,13.6090
1991-02-21 12:30:00 UTC,2448309.020833,24.2947,-82.2033,0150,13.7340
1991-02-21 13:00:00 UTC,2448309.041667,24.2947,-82.2033,0150,13.6710
1991-02-21 13:30:00 UTC,2448309.062500,24.2947,-82.2033,0150,13.7960
1991-02-21 14:00:00 UTC,2448309.083333,24.2947,-82.2033,0150,13.8270
1991-02-21 14:30:00 UTC,2448309.104167,24.2947,-82.2033,0150,13.7650
1991-02-21 15:00:00 UTC,2448309.125000,24.2947,-82.2033,0150,13.3920
1991-02-21 15:30:00 UTC,2448309.145833,24.2947,-82.2033,0150,13.3610
1991-02-21 16:00:00 UTC,2448309.166667,24.2947,-82.2033,0150,13.2990
1991-02-21 16:30:00 UTC,2448309.187500,24.2947,-82.2033,0150,13.2990
1991-02-21 17:00:00 UTC,2448309.208333,24.2947,-82.2033,0150,13.4540
1991-02-21 17:30:00 UTC,2448309.229167,24.2947,-82.2033,0150,13.4850
1991-02-21 18:00:00 UTC,2448309.250000,24.2947,-82.2033,0150,13.3610
1991-02-21 18:30:00 UTC,2448309.270833,24.2947,-82.2033,0150,13.3920
1991-02-21 19:00:00 UTC,2448309.291667,24.2947,-82.2033,0150,13.3920
1991-02-21 19:30:00 UTC,2448309.312500,24.2947,-82.2033,0150,13.3300
1991-02-21 20:00:00 UTC,2448309.333333,24.2947,-82.2033,0150,13.1440
1991-02-21 20:30:00 UTC,2448309.354167,24.2947,-82.2033,0150,13.0200
1991-02-21 21:00:00 UTC,2448309.375000,24.2947,-82.2033,0150,12.9580
1991-02-21 21:30:00 UTC,2448309.395833,24.2947,-82.2033,0150,13.0200
1991-02-21 22:00:00 UTC,2448309.416667,24.2947,-82.2033,0150,12.8340
1991-02-21 22:30:00 UTC,2448309.437500,24.2947,-82.2033,0150,13.0510
1991-02-21 23:00:00 UTC,2448309.458333,24.2947,-82.2033,0150,13.1750
1991-02-21 23:30:00 UTC,2448309.479167,24.2947,-82.2033,0150,13.2680
1991-02-22 00:00:00 UTC,2448309.500000,24.2947,-82.2033,0150,12.9580
1991-02-22 00:30:00 UTC,2448309.520833,24.2947,-82.2033,0150,13.8580
1991-02-22 01:00:00 UTC,2448309.541667,24.2947,-82.2033,0150,12.8650
1991-02-22 01:30:00 UTC,2448309.562500,24.2947,-82.2033,0150,12.8960
1991-02-22 02:00:00 UTC,2448309.583333,24.2947,-82.2033,0150,12.9270
1991-02-22 02:30:00 UTC,2448309.604167,24.2947,-82.2033,0150,12.9580
1991-02-22 03:00:00 UTC,2448309.625000,24.2947,-82.2033,0150,12.8960
1991-02-22 03:30:00 UTC,2448309.645833,24.2947,-82.2033,0150,13.2990
1991-02-22 04:00:00 UTC,2448309.666667,24.2947,-82.2033,0150,13.0820
1991-02-22 04:30:00 UTC,2448309.687500,24.2947,-82.2033,0150,13.2060
1991-02-22 05:00:00 UTC,2448309.708333,24.2947,-82.2033,0150,13.3920
1991-02-22 05:30:00 UTC,2448309.729167,24.2947,-82.2033,0150,13.4230
1991-02-22 06:00:00 UTC,2448309.750000,24.2947,-82.2033,0150,13.3300
1991-02-22 06:30:00 UTC,2448309.770833,24.2947,-82.2033,0150,13.3920
1991-02-22 07:00:00 UTC,2448309.791667,24.2947,-82.2033,0150,13.1750
1991-02-22 07:30:00 UTC,2448309.812500,24.2947,-82.2033,0150,13.0820
1991-02-22 08:00:00 UTC,2448309.833333,24.2947,-82.2033,0150,13.1130
1991-02-22 08:30:00 UTC,2448309.854167,24.2947,-82.2033,0150,13.0820
1991-02-22 09:00:00 UTC,2448309.875000,24.2947,-82.2033,0150,12.5550
1991-02-22 09:30:00 UTC,2448309.895833,24.2947,-82.2033,0150,12.4310
1991-02-22 10:00:00 UTC,2448309.916667,24.2947,-82.2033,0150,12.4000
1991-02-22 10:30:00 UTC,2448309.937500,24.2947,-82.2033,0150,12.4000
1991-02-22 11:00:00 UTC,2448309.958333,24.2947,-82.2033,0150,12.4930
1991-02-22 11:30:00 UTC,2448309.979167,24.2947,-82.2033,0150,13.2060
1991-02-22 12:00:00 UTC,2448310.000000,24.2947,-82.2033,0150,13.7340
1991-02-22 12:30:00 UTC,2448310.020833,24.2947,-82.2033,0150,13.7340
1991-02-22 13:00:00 UTC,2448310.041667,24.2947,-82.2033,0150,13.7020
1991-02-22 13:30:00 UTC,2448310.062500,24.2947,-82.2033,0150,14.1070
1991-02-22 14:00:00 UTC,2448310.083333,24.2947,-82.2033,0150,13.4850
1991-02-22 14:30:00 UTC,2448310.104167,24.2947,-82.2033,0150,13.7960
1991-02-22 15:00:00 UTC,2448310.125000,24.2947,-82.2033,0150,14.3240
1991-02-22 15:30:00 UTC,2448310.145833,24.2947,-82.2033,0150,13.9510
1991-02-22 16:00:00 UTC,2448310.166667,24.2947,-82.2033,0150,13.8580
1991-02-22 16:30:00 UTC,2448310.187500,24.2947,-82.2033,0150,14.2310
1991-02-22 17:00:00 UTC,2448310.208333,24.2947,-82.2033,0150,14.2310
1991-02-22 17:30:00 UTC,2448310.229167,24.2947,-82.2033,0150,14.2620
1991-02-22 18:00:00 UTC,2448310.250000,24.2947,-82.2033,0150,14.1690
1991-02-22 18:30:00 UTC,2448310.270833,24.2947,-82.2033,0150,13.9820
1991-02-22 19:00:00 UTC,2448310.291667,24.2947,-82.2033,0150,13.8580
1991-02-22 19:30:00 UTC,2448310.312500,24.2947,-82.2033,0150,13.4850
1991-02-22 20:00:00 UTC,2448310.333333,24.2947,-82.2033,0150,12.8960
1991-02-22 20:30:00 UTC,2448310.354167,24.2947,-82.2033,0150,12.9270
1991-02-22 21:00:00 UTC,2448310.375000,24.2947,-82.2033,0150,12.6790
1991-02-22 21:30:00 UTC,2448310.395833,24.2947,-82.2033,0150,12.8650
1991-02-22 22:00:00 UTC,2448310.416667,24.2947,-82.2033,0150,12.6790
1991-02-22 22:30:00 UTC,2448310.437500,24.2947,-82.2033,0150,12.8030
1991-02-22 23:00:00 UTC,2448310.458333,24.2947,-82.2033,0150,12.8960
1991-02-22 23:30:00 UTC,2448310.479167,24.2947,-82.2033,0150,12.8960
1991-02-23 00:00:00 UTC,2448310.500000,24.2947,-82.2033,0150,12.8030
1991-02-23 00:30:00 UTC,2448310.520833,24.2947,-82.2033,0150,12.8650
1991-02-23 01:00:00 UTC,2448310.541667,24.2947,-82.2033,0150,12.9270
1991-02-23 01:30:00 UTC,2448310.562500,24.2947,-82.2033,0150,13.1440
1991-02-23 02:00:00 UTC,2448310.583333,24.2947,-82.2033,0150,13.1440
1991-02-23 02:30:00 UTC,2448310.604167,24.2947,-82.2033,0150,13.0510
1991-02-23 03:00:00 UTC,2448310.625000,24.2947,-82.2033,0150,13.1130
1991-02-23 03:30:00 UTC,2448310.645833,24.2947,-82.2033,0150,12.9270
1991-02-23 04:00:00 UTC,2448310.666667,24.2947,-82.2033,0150,12.7410
1991-02-23 04:30:00 UTC,2448310.687500,24.2947,-82.2033,0150,13.1750
1991-02-23 05:00:00 UTC,2448310.708333,24.2947,-82.2033,0150,12.6170
1991-02-23 05:30:00 UTC,2448310.729167,24.2947,-82.2033,0150,12.8030
1991-02-23 06:00:00 UTC,2448310.750000,24.2947,-82.2033,0150,12.8650
1991-02-23 06:30:00 UTC,2448310.770833,24.2947,-82.2033,0150,13.4230
1991-02-23 07:00:00 UTC,2448310.791667,24.2947,-82.2033,0150,12.6170
1991-02-23 07:30:00 UTC,2448310.812500,24.2947,-82.2033,0150,12.4620
1991-02-23 08:00:00 UTC,2448310.833333,24.2947,-82.2033,0150,12.4310
1991-02-23 08:30:00 UTC,2448310.854167,24.2947,-82.2033,0150,12.4000
1991-02-23 09:00:00 UTC,2448310.875000,24.2947,-82.2033,0150,12.5860
1991-02-23 09:30:00 UTC,2448310.895833,24.2947,-82.2033,0150,12.5240
1991-02-23 10:00:00 UTC,2448310.916667,24.2947,-82.2033,0150,12.5240
1991-02-23 10:30:00 UTC,2448310.937500,24.2947,-82.2033,0150,12.5550
1991-02-23 11:00:00 UTC,2448310.958333,24.2947,-82.2033,0150,12.5860
1991-02-23 11:30:00 UTC,2448310.979167,24.2947,-82.2033,0150,12.8650
1991-02-23 12:00:00 UTC,2448311.000000,24.2947,-82.2033,0150,13.3300
1991-02-23 12:30:00 UTC,2448311.020833,24.2947,-82.2033,0150,13.3610
1991-02-23 13:00:00 UTC,2448311.041667,24.2947,-82.2033,0150,13.3300
1991-02-23 13:30:00 UTC,2448311.062500,24.2947,-82.2033,0150,13.1130
1991-02-23 14:00:00 UTC,2448311.083333,24.2947,-82.2033,0150,13.2060
1991-02-23 14:30:00 UTC,2448311.104167,24.2947,-82.2033,0150,13.3610
1991-02-23 15:00:00 UTC,2448311.125000,24.2947,-82.2033,0150,13.3920
1991-02-23 15:30:00 UTC,2448311.145833,24.2947,-82.2033,0150,13.3300
1991-02-23 16:00:00 UTC,2448311.166667,24.2947,-82.2033,0150,13.3610
1991-02-23 16:30:00 UTC,2448311.187500,24.2947,-82.2033,0150,13.3300
1991-02-23 17:00:00 UTC,2448311.208333,24.2947,-82.2033,0150,13.2990
1991-02-23 17:30:00 UTC,2448311.229167,24.2947,-82.2033,0150,13.2990
1991-02-23 18:00:00 UTC,2448311.250000,24.2947,-82.2033,0150,13.2990
1991-02-23 18:30:00 UTC,2448311.270833,24.2947,-82.2033,0150,13.2680
1991-02-23 19:00:00 UTC,2448311.291667,24.2947,-82.2033,0150,13.8890
1991-02-23 19:30:00 UTC,2448311.312500,24.2947,-82.2033,0150,13.9510
1991-02-23 20:00:00 UTC,2448311.333333,24.2947,-82.2033,0150,13.7340
1991-02-23 20:30:00 UTC,2448311.354167,24.2947,-82.2033,0150,13.5160
1991-02-23 21:00:00 UTC,2448311.375000,24.2947,-82.2033,0150,13.1130
1991-02-23 21:30:00 UTC,2448311.395833,24.2947,-82.2033,0150,13.0200